Time,TemperatureF,DewpointF,PressureIn,WindDirection,WindDirectionDegrees,WindSpeedMPH,WindSpeedGustMPH,Humidity,HourlyPrecipIn,Conditions,Clouds,dailyrainin,SolarRadiationWatts/m^2,SoftwareType,DateUTC
2013-05-03 00:01:00,51.6,50.7,30.18,SE,135,0.0,3.0,97,0.01,,,0.09,0.0,meteohub,2013-05-03 04:01:00,
2013-05-03 00:02:00,51.6,50.7,30.17,SSE,153,0.0,3.0,97,0.01,,,0.09,0.0,meteohub,2013-05-03 04:02:00,
2013-05-03 00:03:00,51.6,50.7,30.18,SE,135,0.0,3.0,97,0.01,,,0.09,0.0,meteohub,2013-05-03 04:03:00,
2013-05-03 00:08:00,51.6,50.7,30.17,SSE,159,1.0,4.0,97,0.01,,,0.00,0.0,meteohub,2013-05-03 04:08:00,
2013-05-03 00:13:00,51.6,50.7,30.17,SSW,194,0.0,4.0,97,0.01,,,0.00,0.0,meteohub,2013-05-03 04:13:00,
2013-05-03 00:18:00,51.6,50.7,30.17,SSW,194,0.0,4.0,97,0.01,,,0.00,0.0,meteohub,2013-05-03 04:18:00,
2013-05-03 00:23:00,51.6,50.7,30.17,SW,216,0.0,3.0,97,0.02,,,0.01,0.0,meteohub,2013-05-03 04:23:00,
2013-05-03 00:28:00,51.6,50.7,30.17,SSW,202,2.0,3.0,97,0.02,,,0.01,0.0,meteohub,2013-05-03 04:28:00,
2013-05-03 00:33:00,51.4,50.5,30.17,SW,227,2.0,3.0,97,0.02,,,0.01,0.0,meteohub,2013-05-03 04:33:00,
2013-05-03 00:39:00,51.4,50.5,30.16,SW,227,0.0,3.0,97,0.02,,,0.01,0.0,meteohub,2013-05-03 04:39:00,
2013-05-03 00:44:00,51.4,50.5,30.16,SW,227,0.0,3.0,97,0.02,,,0.01,0.0,meteohub,2013-05-03 04:44:00,
2013-05-03 00:49:00,51.4,50.5,30.16,SSE,149,0.0,2.0,97,0.03,,,0.02,0.0,meteohub,2013-05-03 04:49:00,
2013-05-03 00:54:00,51.4,50.5,30.16,SSE,149,0.0,4.0,97,0.03,,,0.02,0.0,meteohub,2013-05-03 04:54:00,
2013-05-03 00:59:00,51.4,50.5,30.16,SSE,149,0.0,4.0,97,0.02,,,0.02,0.0,meteohub,2013-05-03 04:59:00,
2013-05-03 01:04:00,51.4,50.5,30.16,SSE,167,0.0,4.0,97,0.02,,,0.02,0.0,meteohub,2013-05-03 05:04:00,
2013-05-03 01:09:00,51.3,50.4,30.16,SW,218,0.0,3.0,97,0.02,,,0.02,0.0,meteohub,2013-05-03 05:09:00,
2013-05-03 01:14:00,51.3,50.4,30.15,SSE,161,0.0,3.0,97,0.02,,,0.02,0.0,meteohub,2013-05-03 05:14:00,
2013-05-03 01:19:00,51.3,50.4,30.15,SSW,192,0.0,3.0,97,0.01,,,0.02,0.0,meteohub,2013-05-03 05:19:00,
2013-05-03 01:24:00,51.3,50.4,30.15,SSW,209,0.0,3.0,97,0.01,,,0.02,0.0,meteohub,2013-05-03 05:24:00,
2013-05-03 01:29:00,51.3,50.4,30.15,South,188,1.0,3.0,97,0.01,,,0.02,0.0,meteohub,2013-05-03 05:29:00,
2013-05-03 01:35:00,51.3,50.4,30.14,South,188,0.0,3.0,97,0.02,,,0.03,0.0,meteohub,2013-05-03 05:35:00,
2013-05-03 01:39:00,51.1,50.2,30.14,South,190,1.0,3.0,97,0.02,,,0.03,0.0,meteohub,2013-05-03 05:39:00,
2013-05-03 01:45:00,51.1,50.2,30.14,South,191,1.0,3.0,97,0.02,,,0.03,0.0,meteohub,2013-05-03 05:45:00,
2013-05-03 01:50:00,51.1,50.2,30.14,South,191,0.0,2.0,97,0.01,,,0.03,0.0,meteohub,2013-05-03 05:50:00,
2013-05-03 01:55:00,51.1,50.2,30.14,South,188,2.0,3.0,97,0.01,,,0.03,0.0,meteohub,2013-05-03 05:55:00,
2013-05-03 02:00:00,51.1,50.2,30.14,SSW,213,0.0,3.0,97,0.02,,,0.04,0.0,meteohub,2013-05-03 06:00:00,
2013-05-03 02:05:00,51.1,50.2,30.14,SSW,202,2.0,3.0,97,0.02,,,0.04,0.0,meteohub,2013-05-03 06:05:00,
2013-05-03 02:10:00,51.1,50.2,30.14,South,189,0.0,3.0,97,0.03,,,0.05,0.0,meteohub,2013-05-03 06:10:00,
2013-05-03 02:15:00,51.1,50.2,30.13,South,183,0.0,3.0,97,0.03,,,0.05,0.0,meteohub,2013-05-03 06:15:00,
2013-05-03 02:20:00,50.9,50.0,30.13,South,188,0.0,4.0,97,0.03,,,0.05,0.0,meteohub,2013-05-03 06:20:00,
2013-05-03 02:25:00,50.9,50.0,30.13,South,188,0.0,4.0,97,0.03,,,0.05,0.0,meteohub,2013-05-03 06:25:00,
2013-05-03 02:30:00,50.9,50.0,30.13,South,182,1.0,4.0,97,0.03,,,0.06,0.0,meteohub,2013-05-03 06:30:00,
2013-05-03 02:35:00,50.9,50.0,30.12,South,182,1.0,2.0,97,0.03,,,0.06,0.0,meteohub,2013-05-03 06:35:00,
2013-05-03 02:41:00,50.9,50.0,30.12,South,188,0.0,2.0,97,0.03,,,0.06,0.0,meteohub,2013-05-03 06:41:00,
2013-05-03 02:46:00,50.7,49.8,30.12,East,89,0.0,2.0,97,0.03,,,0.06,0.0,meteohub,2013-05-03 06:46:00,
2013-05-03 02:51:00,50.7,49.8,30.12,South,175,2.0,3.0,97,0.04,,,0.07,0.0,meteohub,2013-05-03 06:51:00,
2013-05-03 02:56:00,50.7,49.8,30.12,South,184,0.0,3.0,97,0.03,,,0.07,0.0,meteohub,2013-05-03 06:56:00,
2013-05-03 03:01:00,50.7,49.8,30.11,South,184,0.0,3.0,97,0.03,,,0.07,0.0,meteohub,2013-05-03 07:01:00,
2013-05-03 03:06:00,50.7,49.8,30.12,South,184,1.0,3.0,97,0.03,,,0.07,0.0,meteohub,2013-05-03 07:06:00,
2013-05-03 03:11:00,50.7,49.8,30.12,South,184,0.0,2.0,97,0.03,,,0.08,0.0,meteohub,2013-05-03 07:11:00,
2013-05-03 03:16:00,50.7,49.8,30.12,South,184,0.0,2.0,97,0.03,,,0.08,0.0,meteohub,2013-05-03 07:16:00,
2013-05-03 03:21:00,50.7,49.8,30.12,South,184,0.0,2.0,97,0.03,,,0.08,0.0,meteohub,2013-05-03 07:21:00,
2013-05-03 03:26:00,50.7,49.8,30.11,SW,215,1.0,3.0,97,0.02,,,0.08,0.0,meteohub,2013-05-03 07:26:00,
2013-05-03 03:31:00,50.7,49.8,30.11,SW,215,0.0,4.0,97,0.02,,,0.08,0.0,meteohub,2013-05-03 07:31:00,
2013-05-03 03:36:00,50.5,49.6,30.11,SE,138,0.0,4.0,97,0.02,,,0.08,0.0,meteohub,2013-05-03 07:36:00,
2013-05-03 03:42:00,50.5,49.6,30.11,SSE,162,1.0,3.0,97,0.02,,,0.08,0.0,meteohub,2013-05-03 07:42:00,
2013-05-03 03:47:00,50.5,49.6,30.11,SW,215,2.0,4.0,97,0.01,,,0.08,0.0,meteohub,2013-05-03 07:47:00,
2013-05-03 03:52:00,50.5,49.6,30.11,West,262,0.0,4.0,97,0.01,,,0.08,0.0,meteohub,2013-05-03 07:52:00,
2013-05-03 03:57:00,50.5,49.6,30.11,SW,216,0.0,3.0,97,0.02,,,0.09,0.0,meteohub,2013-05-03 07:57:00,
2013-05-03 04:02:00,50.5,49.6,30.11,SSE,152,0.0,3.0,97,0.02,,,0.09,0.0,meteohub,2013-05-03 08:02:00,
2013-05-03 04:07:00,50.5,49.6,30.10,SSE,152,0.0,3.0,97,0.01,,,0.09,0.0,meteohub,2013-05-03 08:07:00,
2013-05-03 04:12:00,50.5,49.6,30.10,SSE,152,0.0,3.0,97,0.01,,,0.09,0.0,meteohub,2013-05-03 08:12:00,
2013-05-03 04:17:00,50.5,49.6,30.10,SSE,168,2.0,3.0,97,0.01,,,0.09,0.0,meteohub,2013-05-03 08:17:00,
2013-05-03 04:22:00,50.5,49.6,30.10,South,173,0.0,6.0,97,0.01,,,0.09,0.0,meteohub,2013-05-03 08:22:00,
2013-05-03 04:27:00,50.5,49.6,30.10,South,183,0.0,6.0,97,0.01,,,0.09,0.0,meteohub,2013-05-03 08:27:00,
2013-05-03 04:32:00,50.5,49.6,30.10,South,183,1.0,6.0,97,0.01,,,0.09,0.0,meteohub,2013-05-03 08:32:00,
2013-05-03 04:37:00,50.5,49.6,30.10,SSE,168,3.0,3.0,97,0.01,,,0.09,0.0,meteohub,2013-05-03 08:37:00,
2013-05-03 04:42:00,50.5,49.6,30.10,SSE,149,1.0,4.0,97,0.01,,,0.09,0.0,meteohub,2013-05-03 08:42:00,
2013-05-03 04:47:00,50.5,49.6,30.10,SSE,165,2.0,4.0,97,0.01,,,0.09,0.0,meteohub,2013-05-03 08:47:00,
2013-05-03 04:52:00,50.4,49.5,30.10,SSE,158,0.0,4.0,97,0.01,,,0.10,0.0,meteohub,2013-05-03 08:52:00,
2013-05-03 04:57:00,50.4,49.5,30.10,South,178,0.0,4.0,97,0.01,,,0.10,0.0,meteohub,2013-05-03 08:57:00,
2013-05-03 05:02:00,50.4,49.5,30.10,SSW,204,0.0,4.0,97,0.01,,,0.10,0.0,meteohub,2013-05-03 09:02:00,
2013-05-03 05:07:00,50.4,49.5,30.10,South,177,0.0,4.0,97,0.01,,,0.10,0.0,meteohub,2013-05-03 09:07:00,
2013-05-03 05:12:00,50.4,49.5,30.10,South,187,2.0,3.0,97,0.01,,,0.10,0.0,meteohub,2013-05-03 09:12:00,
2013-05-03 05:17:00,50.4,49.5,30.10,ESE,110,0.0,3.0,97,0.01,,,0.10,0.0,meteohub,2013-05-03 09:17:00,
2013-05-03 05:22:00,50.4,49.5,30.10,South,184,1.0,3.0,97,0.01,,,0.10,0.0,meteohub,2013-05-03 09:22:00,
2013-05-03 05:27:00,50.2,49.3,30.10,South,184,2.0,3.0,97,0.01,,,0.10,0.0,meteohub,2013-05-03 09:27:00,
2013-05-03 05:32:00,50.2,49.3,30.10,South,184,0.0,3.0,97,0.01,,,0.10,0.0,meteohub,2013-05-03 09:32:00,
2013-05-03 05:37:00,50.2,49.3,30.09,NNE,15,4.0,4.0,97,0.02,,,0.11,0.0,meteohub,2013-05-03 09:37:00,
2013-05-03 05:42:00,50.2,49.3,30.09,SE,136,1.0,5.0,97,0.02,,,0.11,0.0,meteohub,2013-05-03 09:42:00,
2013-05-03 05:47:00,50.0,49.1,30.09,SSE,151,0.0,5.0,97,0.01,,,0.11,0.0,meteohub,2013-05-03 09:47:00,
2013-05-03 05:52:00,50.0,49.1,30.09,SSW,203,2.0,5.0,97,0.01,,,0.11,0.0,meteohub,2013-05-03 09:52:00,
2013-05-03 05:57:00,49.8,48.9,30.09,SSE,159,2.0,3.0,97,0.01,,,0.11,0.0,meteohub,2013-05-03 09:57:00,
2013-05-03 06:02:00,49.8,48.9,30.09,SSW,196,0.0,5.0,97,0.01,,,0.11,0.0,meteohub,2013-05-03 10:02:00,
2013-05-03 06:07:00,49.8,48.9,30.09,SSE,151,1.0,5.0,97,0.01,,,0.11,0.0,meteohub,2013-05-03 10:07:00,
2013-05-03 06:12:00,49.6,48.7,30.09,SSW,211,3.0,5.0,97,0.01,,,0.11,0.0,meteohub,2013-05-03 10:12:00,
2013-05-03 06:17:00,49.6,48.7,30.09,South,169,1.0,4.0,97,0.01,,,0.11,0.0,meteohub,2013-05-03 10:17:00,
2013-05-03 06:22:00,49.6,48.7,30.09,SSW,213,2.0,4.0,97,0.01,,,0.11,0.0,meteohub,2013-05-03 10:22:00,
2013-05-03 06:27:00,49.6,48.7,30.09,SSW,204,0.0,3.0,97,0.01,,,0.11,0.0,meteohub,2013-05-03 10:27:00,
2013-05-03 06:32:00,49.6,48.7,30.09,SW,227,1.0,3.0,97,0.00,,,0.11,0.0,meteohub,2013-05-03 10:32:00,
2013-05-03 06:37:00,49.6,48.7,30.09,SSW,198,0.0,2.0,97,0.00,,,0.11,0.0,meteohub,2013-05-03 10:37:00,
2013-05-03 06:42:00,49.6,48.7,30.10,SE,139,1.0,4.0,97,0.00,,,0.11,0.0,meteohub,2013-05-03 10:42:00,
2013-05-03 06:47:00,49.6,48.7,30.10,SSW,202,0.0,4.0,97,0.00,,,0.11,0.0,meteohub,2013-05-03 10:47:00,
2013-05-03 06:52:00,49.6,48.7,30.10,SSW,207,2.0,4.0,97,0.00,,,0.11,0.0,meteohub,2013-05-03 10:52:00,
2013-05-03 06:57:00,49.6,48.7,30.10,SE,141,0.0,4.0,97,0.00,,,0.11,0.0,meteohub,2013-05-03 10:57:00,
2013-05-03 07:02:00,49.6,48.7,30.10,SW,227,1.0,3.0,97,0.00,,,0.11,0.0,meteohub,2013-05-03 11:02:00,
2013-05-03 07:07:00,49.6,48.7,30.10,SSW,203,1.0,3.0,97,0.00,,,0.11,5.0,meteohub,2013-05-03 11:07:00,
2013-05-03 07:12:00,49.6,48.7,30.11,South,186,0.0,5.0,97,0.00,,,0.11,7.0,meteohub,2013-05-03 11:12:00,
2013-05-03 07:17:00,49.5,48.6,30.11,SSW,202,0.0,5.0,97,0.00,,,0.11,9.0,meteohub,2013-05-03 11:17:00,
2013-05-03 07:22:00,49.5,48.6,30.11,SSW,202,0.0,6.0,97,0.00,,,0.11,12.0,meteohub,2013-05-03 11:22:00,
2013-05-03 07:27:00,49.5,48.6,30.11,SSW,203,0.0,6.0,97,0.00,,,0.11,14.0,meteohub,2013-05-03 11:27:00,
2013-05-03 07:32:00,49.5,48.6,30.11,SE,142,3.0,4.0,97,0.00,,,0.11,19.0,meteohub,2013-05-03 11:32:00,
2013-05-03 07:37:00,49.5,48.6,30.11,SSE,147,3.0,4.0,97,0.00,,,0.11,19.0,meteohub,2013-05-03 11:37:00,
2013-05-03 07:42:00,49.5,48.6,30.11,South,180,2.0,4.0,97,0.00,,,0.11,23.0,meteohub,2013-05-03 11:42:00,
2013-05-03 07:47:00,49.5,48.6,30.11,SSW,204,0.0,7.0,97,0.01,,,0.12,23.0,meteohub,2013-05-03 11:47:00,
2013-05-03 07:52:00,49.5,48.6,30.11,SSW,204,0.0,7.0,97,0.01,,,0.12,25.0,meteohub,2013-05-03 11:52:00,
2013-05-03 07:57:00,49.5,48.6,30.11,SE,126,2.0,3.0,97,0.01,,,0.12,26.0,meteohub,2013-05-03 11:57:00,
2013-05-03 08:02:00,49.5,48.6,30.11,South,173,0.0,5.0,97,0.01,,,0.12,35.0,meteohub,2013-05-03 12:02:00,
2013-05-03 08:07:00,49.5,48.6,30.11,SSW,194,0.0,5.0,97,0.01,,,0.12,47.0,meteohub,2013-05-03 12:07:00,
2013-05-03 08:12:00,49.5,48.6,30.11,SSE,167,3.0,5.0,97,0.01,,,0.12,44.0,meteohub,2013-05-03 12:12:00,
2013-05-03 08:17:00,49.6,48.7,30.11,SSW,197,2.0,4.0,97,0.02,,,0.13,47.0,meteohub,2013-05-03 12:17:00,
2013-05-03 08:22:00,49.6,48.7,30.12,South,186,2.0,4.0,97,0.02,,,0.13,44.0,meteohub,2013-05-03 12:22:00,
2013-05-03 08:27:00,49.6,48.7,30.12,SSW,203,0.0,3.0,97,0.02,,,0.13,32.0,meteohub,2013-05-03 12:27:00,
2013-05-03 08:32:00,49.6,48.7,30.12,SSW,213,0.0,4.0,97,0.02,,,0.13,32.0,meteohub,2013-05-03 12:32:00,
2013-05-03 08:37:00,49.6,48.7,30.12,WSW,238,1.0,6.0,97,0.02,,,0.13,46.0,meteohub,2013-05-03 12:37:00,
2013-05-03 08:42:00,49.6,48.7,30.12,South,183,3.0,6.0,97,0.02,,,0.14,42.0,meteohub,2013-05-03 12:42:00,
2013-05-03 08:47:00,49.6,48.7,30.11,SSW,208,0.0,6.0,97,0.02,,,0.14,46.0,meteohub,2013-05-03 12:47:00,
2013-05-03 08:52:00,49.6,48.7,30.12,SSE,153,3.0,6.0,97,0.02,,,0.14,53.0,meteohub,2013-05-03 12:52:00,
2013-05-03 08:57:00,49.5,48.6,30.12,SSE,168,2.0,6.0,97,0.02,,,0.14,39.0,meteohub,2013-05-03 12:57:00,
2013-05-03 09:02:00,49.5,48.6,30.12,SSE,150,0.0,5.0,97,0.02,,,0.14,49.0,meteohub,2013-05-03 13:02:00,
2013-05-03 09:07:00,49.5,48.6,30.12,SSE,167,1.0,6.0,97,0.02,,,0.14,37.0,meteohub,2013-05-03 13:07:00,
2013-05-03 09:12:00,49.5,48.6,30.12,SW,221,0.0,6.0,97,0.01,,,0.14,40.0,meteohub,2013-05-03 13:12:00,
2013-05-03 09:17:00,49.5,48.6,30.12,SSW,194,2.0,7.0,97,0.02,,,0.15,49.0,meteohub,2013-05-03 13:17:00,
2013-05-03 09:22:00,49.3,48.4,30.12,SSE,155,2.0,7.0,97,0.02,,,0.15,39.0,meteohub,2013-05-03 13:22:00,
2013-05-03 09:27:00,49.3,48.4,30.12,WSW,246,1.0,7.0,97,0.02,,,0.15,35.0,meteohub,2013-05-03 13:27:00,
2013-05-03 09:32:00,49.3,48.4,30.12,SE,139,1.0,4.0,97,0.02,,,0.15,53.0,meteohub,2013-05-03 13:32:00,
2013-05-03 09:37:00,49.3,48.4,30.12,SSW,204,1.0,4.0,97,0.02,,,0.15,51.0,meteohub,2013-05-03 13:37:00,
2013-05-03 09:42:00,49.3,48.4,30.12,South,180,0.0,4.0,97,0.01,,,0.15,37.0,meteohub,2013-05-03 13:42:00,
2013-05-03 09:47:00,49.1,48.2,30.13,NE,50,2.0,5.0,97,0.01,,,0.15,40.0,meteohub,2013-05-03 13:47:00,
2013-05-03 09:52:00,48.9,48.0,30.13,SSE,160,2.0,5.0,97,0.01,,,0.15,54.0,meteohub,2013-05-03 13:52:00,
2013-05-03 09:57:00,48.9,48.0,30.12,WSW,246,3.0,5.0,97,0.01,,,0.15,53.0,meteohub,2013-05-03 13:57:00,
2013-05-03 10:02:00,48.9,48.0,30.13,SSE,154,2.0,5.0,97,0.01,,,0.15,63.0,meteohub,2013-05-03 14:02:00,
2013-05-03 10:07:00,48.9,48.0,30.12,SSE,159,1.0,5.0,97,0.01,,,0.15,62.0,meteohub,2013-05-03 14:07:00,
2013-05-03 10:12:00,48.9,48.0,30.12,SE,138,0.0,6.0,97,0.01,,,0.15,81.0,meteohub,2013-05-03 14:12:00,
2013-05-03 10:17:00,48.9,48.0,30.12,SSE,161,1.0,6.0,97,0.00,,,0.15,83.0,meteohub,2013-05-03 14:17:00,
2013-05-03 10:22:00,48.9,48.0,30.12,WNW,285,2.0,6.0,97,0.00,,,0.15,72.0,meteohub,2013-05-03 14:22:00,
2013-05-03 10:27:00,48.9,48.0,30.12,WSW,242,1.0,5.0,97,0.00,,,0.15,74.0,meteohub,2013-05-03 14:27:00,
2013-05-03 10:32:00,49.1,48.2,30.12,SW,219,2.0,5.0,97,0.00,,,0.15,69.0,meteohub,2013-05-03 14:32:00,
2013-05-03 10:37:00,49.1,48.2,30.12,SSW,197,1.0,6.0,97,0.00,,,0.15,81.0,meteohub,2013-05-03 14:37:00,
2013-05-03 10:42:00,49.1,48.2,30.12,SW,229,0.0,6.0,97,0.00,,,0.15,204.0,meteohub,2013-05-03 14:42:00,
2013-05-03 10:47:00,49.5,48.6,30.12,SSE,155,2.0,6.0,97,0.00,,,0.15,195.0,meteohub,2013-05-03 14:47:00,
2013-05-03 10:52:00,49.8,49.3,30.12,SW,223,3.0,5.0,98,0.00,,,0.15,213.0,meteohub,2013-05-03 14:52:00,
2013-05-03 10:57:00,49.8,49.3,30.13,South,186,3.0,4.0,98,0.00,,,0.15,204.0,meteohub,2013-05-03 14:57:00,
2013-05-03 11:02:00,49.8,48.9,30.13,SE,134,2.0,4.0,97,0.00,,,0.15,244.0,meteohub,2013-05-03 15:02:00,
2013-05-03 11:07:00,50.4,49.5,30.13,WSW,239,4.0,5.0,97,0.00,,,0.15,269.0,meteohub,2013-05-03 15:07:00,
2013-05-03 11:12:00,50.7,49.8,30.12,SSE,162,1.0,6.0,97,0.00,,,0.15,401.0,meteohub,2013-05-03 15:12:00,
2013-05-03 11:17:00,51.3,50.4,30.12,SSW,194,1.0,6.0,97,0.00,,,0.15,369.0,meteohub,2013-05-03 15:17:00,
2013-05-03 11:22:00,52.0,51.1,30.12,SSE,167,3.0,6.0,97,0.00,,,0.15,420.0,meteohub,2013-05-03 15:22:00,
2013-05-03 11:27:00,52.2,51.3,30.12,WSW,258,1.0,7.0,97,0.00,,,0.15,432.0,meteohub,2013-05-03 15:27:00,
2013-05-03 11:32:00,52.5,51.4,30.12,SSW,193,2.0,7.0,96,0.00,,,0.15,441.0,meteohub,2013-05-03 15:32:00,
2013-05-03 11:37:00,53.2,51.8,30.12,WSW,241,1.0,7.0,95,0.00,,,0.15,446.0,meteohub,2013-05-03 15:37:00,
2013-05-03 11:42:00,53.8,51.4,30.12,SSW,207,1.0,5.0,92,0.00,,,0.15,429.0,meteohub,2013-05-03 15:42:00,
2013-05-03 11:47:00,54.0,50.7,30.12,SSE,160,3.0,6.0,89,0.00,,,0.15,450.0,meteohub,2013-05-03 15:47:00,
2013-05-03 11:52:00,54.1,51.3,30.12,South,190,4.0,6.0,90,0.00,,,0.15,439.0,meteohub,2013-05-03 15:52:00,
2013-05-03 11:57:00,54.5,52.0,30.12,South,189,1.0,7.0,91,0.00,,,0.15,454.0,meteohub,2013-05-03 15:57:00,
2013-05-03 12:02:00,54.7,50.9,30.12,SW,219,3.0,7.0,87,0.00,,,0.15,401.0,meteohub,2013-05-03 16:02:00,
2013-05-03 12:07:00,54.9,50.7,30.12,SSW,202,0.0,7.0,86,0.00,,,0.15,207.0,meteohub,2013-05-03 16:07:00,
2013-05-03 12:12:00,54.7,50.5,30.12,SW,221,1.0,7.0,86,0.00,,,0.15,192.0,meteohub,2013-05-03 16:12:00,
2013-05-03 12:17:00,54.7,50.5,30.12,SSE,159,1.0,7.0,86,0.00,,,0.15,213.0,meteohub,2013-05-03 16:17:00,
2013-05-03 12:22:00,54.5,50.4,30.12,SE,127,3.0,6.0,86,0.00,,,0.15,244.0,meteohub,2013-05-03 16:22:00,
2013-05-03 12:27:00,54.3,50.2,30.11,South,180,0.0,4.0,86,0.00,,,0.15,301.0,meteohub,2013-05-03 16:27:00,
2013-05-03 12:32:00,54.5,50.4,30.11,WSW,258,2.0,4.0,86,0.00,,,0.15,330.0,meteohub,2013-05-03 16:32:00,
2013-05-03 12:37:00,54.7,50.5,30.11,SW,227,1.0,6.0,86,0.00,,,0.15,355.0,meteohub,2013-05-03 16:37:00,
2013-05-03 12:42:00,54.9,50.2,30.11,SSW,211,0.0,6.0,84,0.00,,,0.15,404.0,meteohub,2013-05-03 16:42:00,
2013-05-03 12:47:00,54.9,51.1,30.11,South,190,2.0,5.0,87,0.00,,,0.15,396.0,meteohub,2013-05-03 16:47:00,
2013-05-03 12:52:00,54.9,50.4,30.11,WSW,238,0.0,5.0,85,0.00,,,0.15,237.0,meteohub,2013-05-03 16:52:00,
2013-05-03 12:58:00,54.9,50.4,30.11,WNW,291,2.0,7.0,85,0.00,,,0.15,167.0,meteohub,2013-05-03 16:58:00,
2013-05-03 13:03:00,54.7,50.2,30.11,SW,229,1.0,7.0,85,0.00,,,0.15,508.0,meteohub,2013-05-03 17:03:00,
2013-05-03 13:08:00,55.0,51.3,30.11,SSW,194,3.0,7.0,87,0.00,,,0.15,281.0,meteohub,2013-05-03 17:08:00,
2013-05-03 13:13:00,55.2,51.4,30.10,West,272,1.0,7.0,87,0.00,,,0.15,260.0,meteohub,2013-05-03 17:13:00,
2013-05-03 13:18:00,55.2,50.5,30.10,SW,234,4.0,7.0,84,0.00,,,0.15,220.0,meteohub,2013-05-03 17:18:00,
2013-05-03 13:23:00,55.0,50.9,30.10,WSW,257,3.0,7.0,86,0.00,,,0.15,244.0,meteohub,2013-05-03 17:23:00,
2013-05-03 13:28:00,55.2,51.4,30.10,SE,130,3.0,8.0,87,0.00,,,0.15,520.0,meteohub,2013-05-03 17:28:00,
2013-05-03 13:33:00,55.6,51.8,30.09,SW,234,4.0,8.0,87,0.00,,,0.15,506.0,meteohub,2013-05-03 17:33:00,
2013-05-03 13:38:00,55.8,51.1,30.09,SSE,148,3.0,6.0,84,0.00,,,0.15,241.0,meteohub,2013-05-03 17:38:00,
2013-05-03 13:44:00,55.6,50.5,30.09,SSW,192,5.0,6.0,83,0.00,,,0.15,302.0,meteohub,2013-05-03 17:44:00,
2013-05-03 13:49:00,55.2,50.5,30.09,East,82,6.0,7.0,84,0.00,,,0.15,193.0,meteohub,2013-05-03 17:49:00,
2013-05-03 13:54:00,55.0,50.5,30.09,South,177,2.0,7.0,85,0.00,,,0.15,200.0,meteohub,2013-05-03 17:54:00,
2013-05-03 13:59:00,54.9,50.7,30.09,South,172,1.0,6.0,86,0.00,,,0.15,158.0,meteohub,2013-05-03 17:59:00,
2013-05-03 14:04:00,54.7,50.5,30.09,SW,236,2.0,6.0,86,0.00,,,0.15,195.0,meteohub,2013-05-03 18:04:00,
2013-05-03 14:09:00,54.1,50.0,30.10,South,184,0.0,5.0,86,0.00,,,0.15,132.0,meteohub,2013-05-03 18:09:00,
2013-05-03 14:14:00,54.0,50.2,30.09,SSW,213,0.0,5.0,87,0.00,,,0.15,118.0,meteohub,2013-05-03 18:14:00,
2013-05-03 14:19:00,53.8,50.5,30.09,South,186,0.0,5.0,89,0.00,,,0.15,125.0,meteohub,2013-05-03 18:19:00,
2013-05-03 14:24:00,53.8,50.9,30.09,SW,232,1.0,5.0,90,0.00,,,0.15,107.0,meteohub,2013-05-03 18:24:00,
2013-05-03 14:29:00,53.4,50.5,30.09,South,180,0.0,5.0,90,0.00,,,0.15,88.0,meteohub,2013-05-03 18:29:00,
2013-05-03 14:34:00,53.2,50.7,30.09,SSW,212,3.0,3.0,91,0.00,,,0.15,97.0,meteohub,2013-05-03 18:34:00,
2013-05-03 14:39:00,53.1,50.5,30.09,SSW,202,0.0,3.0,91,0.00,,,0.15,98.0,meteohub,2013-05-03 18:39:00,
2013-05-03 14:44:00,52.9,50.5,30.09,SSW,192,3.0,4.0,92,0.00,,,0.15,76.0,meteohub,2013-05-03 18:44:00,
2013-05-03 14:49:00,52.7,50.4,30.09,ESE,119,2.0,4.0,92,0.00,,,0.15,90.0,meteohub,2013-05-03 18:49:00,
2013-05-03 14:54:00,52.3,50.0,30.09,SW,214,2.0,3.0,92,0.00,,,0.15,141.0,meteohub,2013-05-03 18:54:00,
2013-05-03 14:59:00,52.2,50.2,30.09,SW,229,2.0,5.0,93,0.01,,,0.16,139.0,meteohub,2013-05-03 18:59:00,
2013-05-03 15:05:00,52.2,50.2,30.09,South,183,7.0,7.0,93,0.01,,,0.17,105.0,meteohub,2013-05-03 19:05:00,
2013-05-03 15:10:00,52.0,50.4,30.09,South,190,2.0,7.0,94,0.02,,,0.17,111.0,meteohub,2013-05-03 19:10:00,
2013-05-03 15:15:00,52.0,50.4,30.09,SSW,213,0.0,7.0,94,0.02,,,0.17,95.0,meteohub,2013-05-03 19:15:00,
2013-05-03 15:20:00,52.0,50.4,30.09,SSW,195,1.0,6.0,94,0.02,,,0.17,88.0,meteohub,2013-05-03 19:20:00,
2013-05-03 15:25:00,52.0,50.5,30.09,South,188,0.0,3.0,95,0.03,,,0.18,88.0,meteohub,2013-05-03 19:25:00,
2013-05-03 15:30:00,52.0,50.5,30.09,WSW,241,2.0,6.0,95,0.03,,,0.18,67.0,meteohub,2013-05-03 19:30:00,
2013-05-03 15:35:00,51.6,50.0,30.09,WNW,293,2.0,6.0,94,0.03,,,0.18,153.0,meteohub,2013-05-03 19:35:00,
2013-05-03 15:40:00,51.8,50.4,30.07,SSE,163,2.0,6.0,95,0.03,,,0.18,179.0,meteohub,2013-05-03 19:40:00,
2013-05-03 15:45:00,52.2,50.7,30.08,SW,223,2.0,8.0,95,0.03,,,0.18,239.0,meteohub,2013-05-03 19:45:00,
2013-05-03 15:50:00,52.5,51.4,30.08,South,184,2.0,8.0,96,0.03,,,0.18,283.0,meteohub,2013-05-03 19:50:00,
2013-05-03 15:55:00,52.5,51.4,30.07,WSW,238,3.0,5.0,96,0.02,,,0.18,260.0,meteohub,2013-05-03 19:55:00,
2013-05-03 16:00:00,53.1,52.0,30.07,SSW,198,0.0,5.0,96,0.02,,,0.18,149.0,meteohub,2013-05-03 20:00:00,
2013-05-03 16:06:00,53.4,52.3,30.06,WSW,244,2.0,5.0,96,0.01,,,0.18,260.0,meteohub,2013-05-03 20:06:00,
2013-05-03 16:11:00,53.4,52.3,30.07,SW,219,2.0,5.0,96,0.01,,,0.18,141.0,meteohub,2013-05-03 20:11:00,
2013-05-03 16:16:00,53.2,51.8,30.07,SSW,202,1.0,6.0,95,0.01,,,0.18,104.0,meteohub,2013-05-03 20:16:00,
2013-05-03 16:21:00,53.1,51.6,30.07,SW,220,2.0,6.0,95,0.01,,,0.18,114.0,meteohub,2013-05-03 20:21:00,
2013-05-03 16:26:00,53.1,51.6,30.07,WSW,252,2.0,6.0,95,0.00,,,0.18,88.0,meteohub,2013-05-03 20:26:00,
2013-05-03 16:31:00,52.9,51.3,30.07,WSW,257,1.0,4.0,94,0.00,,,0.18,160.0,meteohub,2013-05-03 20:31:00,
2013-05-03 16:36:00,53.1,51.4,30.08,SE,142,1.0,4.0,94,0.00,,,0.18,137.0,meteohub,2013-05-03 20:36:00,
2013-05-03 16:41:00,53.1,51.4,30.07,SE,137,0.0,4.0,94,0.00,,,0.18,158.0,meteohub,2013-05-03 20:41:00,
2013-05-03 16:46:00,53.1,51.4,30.07,SSE,159,1.0,4.0,94,0.00,,,0.18,174.0,meteohub,2013-05-03 20:46:00,
2013-05-03 16:51:00,53.2,51.8,30.06,WSW,255,6.0,6.0,95,0.00,,,0.18,211.0,meteohub,2013-05-03 20:51:00,
2013-05-03 16:56:00,53.2,51.6,30.06,WSW,244,3.0,7.0,94,0.00,,,0.18,165.0,meteohub,2013-05-03 20:56:00,
2013-05-03 17:01:00,53.2,51.6,30.06,SW,234,1.0,7.0,94,0.00,,,0.18,81.0,meteohub,2013-05-03 21:01:00,
2013-05-03 17:06:00,53.2,51.6,30.07,West,265,1.0,7.0,94,0.00,,,0.18,40.0,meteohub,2013-05-03 21:06:00,
2013-05-03 17:11:00,53.1,51.1,30.06,SSW,208,0.0,4.0,93,0.00,,,0.18,37.0,meteohub,2013-05-03 21:11:00,
2013-05-03 17:16:00,53.1,51.1,30.06,South,190,0.0,5.0,93,0.00,,,0.18,23.0,meteohub,2013-05-03 21:16:00,
2013-05-03 17:21:00,52.9,50.9,30.06,SSE,154,2.0,5.0,93,0.00,,,0.18,46.0,meteohub,2013-05-03 21:21:00,
2013-05-03 17:26:00,52.7,50.4,30.06,South,188,1.0,3.0,92,0.00,,,0.18,32.0,meteohub,2013-05-03 21:26:00,
2013-05-03 17:32:00,52.5,50.2,30.06,SSE,147,3.0,5.0,92,0.00,,,0.18,39.0,meteohub,2013-05-03 21:32:00,
2013-05-03 17:37:00,52.3,50.0,30.06,WSW,256,0.0,7.0,92,0.00,,,0.18,32.0,meteohub,2013-05-03 21:37:00,
2013-05-03 17:42:00,52.3,50.4,30.06,South,182,0.0,7.0,93,0.00,,,0.18,30.0,meteohub,2013-05-03 21:42:00,
2013-05-03 17:47:00,52.2,50.2,30.06,SSW,192,0.0,7.0,93,0.00,,,0.18,23.0,meteohub,2013-05-03 21:47:00,
2013-05-03 17:52:00,52.2,50.2,30.06,SSW,202,2.0,4.0,93,0.00,,,0.18,25.0,meteohub,2013-05-03 21:52:00,
2013-05-03 17:57:00,52.0,50.0,30.06,SE,127,1.0,4.0,93,0.00,,,0.18,18.0,meteohub,2013-05-03 21:57:00,
2013-05-03 18:02:00,52.0,50.0,30.06,East,98,1.0,4.0,93,0.00,,,0.18,25.0,meteohub,2013-05-03 22:02:00,
2013-05-03 18:07:00,52.0,50.0,30.06,WSW,242,1.0,4.0,93,0.00,,,0.18,23.0,meteohub,2013-05-03 22:07:00,
2013-05-03 18:12:00,52.0,50.4,30.06,South,172,0.0,4.0,94,0.00,,,0.18,21.0,meteohub,2013-05-03 22:12:00,
2013-05-03 18:17:00,51.8,50.2,30.05,SSE,148,3.0,5.0,94,0.00,,,0.18,25.0,meteohub,2013-05-03 22:17:00,
2013-05-03 18:22:00,51.6,50.0,30.05,WNW,285,1.0,5.0,94,0.00,,,0.18,23.0,meteohub,2013-05-03 22:22:00,
2013-05-03 18:27:00,51.6,50.0,30.05,SSW,198,3.0,5.0,94,0.00,,,0.18,19.0,meteohub,2013-05-03 22:27:00,
2013-05-03 18:32:00,51.4,49.8,30.05,ENE,63,1.0,7.0,94,0.01,,,0.19,21.0,meteohub,2013-05-03 22:32:00,
2013-05-03 18:37:00,51.4,49.8,30.05,SW,215,0.0,8.0,94,0.01,,,0.19,16.0,meteohub,2013-05-03 22:37:00,
2013-05-03 18:42:00,51.3,49.6,30.05,ESE,105,0.0,8.0,94,0.01,,,0.19,23.0,meteohub,2013-05-03 22:42:00,
2013-05-03 18:47:00,51.3,49.8,30.05,SSW,212,0.0,8.0,95,0.01,,,0.19,16.0,meteohub,2013-05-03 22:47:00,
2013-05-03 18:52:00,51.3,49.8,30.05,South,184,0.0,5.0,95,0.01,,,0.19,19.0,meteohub,2013-05-03 22:52:00,
2013-05-03 18:57:00,51.3,49.8,30.04,SSE,153,0.0,5.0,95,0.01,,,0.19,11.0,meteohub,2013-05-03 22:57:00,
2013-05-03 19:02:00,51.3,49.8,30.04,SSE,160,3.0,5.0,95,0.01,,,0.19,7.0,meteohub,2013-05-03 23:02:00,
2013-05-03 19:07:00,51.3,49.8,30.04,SSW,198,2.0,5.0,95,0.01,,,0.19,5.0,meteohub,2013-05-03 23:07:00,
2013-05-03 19:12:00,51.1,49.5,30.05,SSW,205,0.0,7.0,94,0.01,,,0.19,9.0,meteohub,2013-05-03 23:12:00,
2013-05-03 19:17:00,51.1,49.6,30.04,WSW,242,0.0,7.0,95,0.01,,,0.19,7.0,meteohub,2013-05-03 23:17:00,
2013-05-03 19:22:00,51.1,49.6,30.05,SSE,167,1.0,7.0,95,0.02,,,0.20,0.0,meteohub,2013-05-03 23:22:00,
2013-05-03 19:27:00,50.9,49.5,30.05,South,173,2.0,5.0,95,0.02,,,0.20,5.0,meteohub,2013-05-03 23:27:00,
2013-05-03 19:32:00,50.9,49.5,30.04,SSE,163,2.0,5.0,95,0.01,,,0.20,0.0,meteohub,2013-05-03 23:32:00,
2013-05-03 19:37:00,50.7,49.3,30.05,SSW,198,1.0,5.0,95,0.01,,,0.20,0.0,meteohub,2013-05-03 23:37:00,
2013-05-03 19:42:00,50.7,49.3,30.05,SSE,161,0.0,6.0,95,0.01,,,0.20,0.0,meteohub,2013-05-03 23:42:00,
2013-05-03 19:47:00,50.7,49.6,30.05,SW,234,3.0,6.0,96,0.01,,,0.20,0.0,meteohub,2013-05-03 23:47:00,
2013-05-03 19:52:00,50.7,49.6,30.05,South,179,2.0,4.0,96,0.01,,,0.20,0.0,meteohub,2013-05-03 23:52:00,
2013-05-03 19:57:00,50.5,49.5,30.05,South,170,3.0,5.0,96,0.02,,,0.21,0.0,meteohub,2013-05-03 23:57:00,
2013-05-03 20:02:00,50.5,49.5,30.06,SSE,149,1.0,5.0,96,0.02,,,0.21,0.0,meteohub,2013-05-04 00:02:00,
2013-05-03 20:07:00,50.5,49.5,30.06,SSW,209,1.0,5.0,96,0.06,,,0.25,0.0,meteohub,2013-05-04 00:07:00,
2013-05-03 20:12:00,50.4,49.3,30.06,ENE,68,2.0,5.0,96,0.07,,,0.26,0.0,meteohub,2013-05-04 00:12:00,
2013-05-03 20:17:00,50.2,49.1,30.06,ENE,76,5.0,10.0,96,0.06,,,0.26,0.0,meteohub,2013-05-04 00:17:00,
2013-05-03 20:23:00,49.8,48.7,30.06,ESE,121,0.0,11.0,96,0.07,,,0.27,0.0,meteohub,2013-05-04 00:23:00,
2013-05-03 20:28:00,49.6,48.6,30.06,West,273,2.0,11.0,96,0.07,,,0.27,0.0,meteohub,2013-05-04 00:28:00,
2013-05-03 20:33:00,49.6,48.6,30.05,SE,144,0.0,11.0,96,0.07,,,0.27,0.0,meteohub,2013-05-04 00:33:00,
2013-05-03 20:38:00,49.6,48.6,30.05,NE,40,0.0,8.0,96,0.07,,,0.27,0.0,meteohub,2013-05-04 00:38:00,
2013-05-03 20:43:00,49.6,48.6,30.06,SW,216,3.0,5.0,96,0.07,,,0.27,0.0,meteohub,2013-05-04 00:43:00,
2013-05-03 20:48:00,49.6,48.6,30.05,SW,228,0.0,4.0,96,0.07,,,0.27,0.0,meteohub,2013-05-04 00:48:00,
2013-05-03 20:53:00,49.6,48.6,30.05,SW,231,3.0,5.0,96,0.07,,,0.28,0.0,meteohub,2013-05-04 00:53:00,
2013-05-03 20:58:00,49.6,48.6,30.05,SSW,207,2.0,5.0,96,0.07,,,0.28,0.0,meteohub,2013-05-04 00:58:00,
2013-05-03 21:03:00,49.6,48.6,30.05,SW,219,0.0,5.0,96,0.06,,,0.28,0.0,meteohub,2013-05-04 01:03:00,
2013-05-03 21:08:00,49.6,48.7,30.05,South,178,1.0,3.0,97,0.02,,,0.28,0.0,meteohub,2013-05-04 01:08:00,
2013-05-03 21:13:00,49.6,48.7,30.05,South,172,0.0,6.0,97,0.02,,,0.28,0.0,meteohub,2013-05-04 01:13:00,
2013-05-03 21:18:00,49.6,48.7,30.05,WSW,254,1.0,6.0,97,0.02,,,0.28,0.0,meteohub,2013-05-04 01:18:00,
2013-05-03 21:24:00,49.6,48.7,30.05,SW,219,1.0,4.0,97,0.01,,,0.28,0.0,meteohub,2013-05-04 01:24:00,
2013-05-03 21:29:00,49.6,48.7,30.05,SE,138,2.0,5.0,97,0.01,,,0.28,0.0,meteohub,2013-05-04 01:29:00,
2013-05-03 21:34:00,49.6,48.7,30.05,South,188,2.0,6.0,97,0.01,,,0.28,0.0,meteohub,2013-05-04 01:34:00,
2013-05-03 21:39:00,49.6,48.7,30.05,SSE,163,3.0,6.0,97,0.01,,,0.28,0.0,meteohub,2013-05-04 01:39:00,
2013-05-03 21:44:00,49.6,48.7,30.05,WSW,240,4.0,6.0,97,0.01,,,0.28,0.0,meteohub,2013-05-04 01:44:00,
2013-05-03 21:49:00,49.6,48.7,30.06,SSE,161,3.0,5.0,97,0.01,,,0.28,0.0,meteohub,2013-05-04 01:49:00,
2013-05-03 21:54:00,49.6,48.7,30.06,South,189,3.0,5.0,97,0.00,,,0.28,0.0,meteohub,2013-05-04 01:54:00,
2013-05-03 21:59:00,49.6,48.7,30.06,WNW,295,3.0,5.0,97,0.00,,,0.28,0.0,meteohub,2013-05-04 01:59:00,
2013-05-03 22:04:00,49.6,48.7,30.06,SE,136,0.0,5.0,97,0.00,,,0.28,0.0,meteohub,2013-05-04 02:04:00,
2013-05-03 22:09:00,49.6,48.7,30.06,ESE,123,0.0,5.0,97,0.00,,,0.28,0.0,meteohub,2013-05-04 02:09:00,
2013-05-03 22:14:00,49.6,48.7,30.06,WSW,248,2.0,5.0,97,0.00,,,0.28,0.0,meteohub,2013-05-04 02:14:00,
2013-05-03 22:20:00,49.6,48.7,30.06,SE,140,0.0,5.0,97,0.00,,,0.28,0.0,meteohub,2013-05-04 02:20:00,
2013-05-03 22:25:00,49.6,48.7,30.06,SSW,192,1.0,5.0,97,0.00,,,0.28,0.0,meteohub,2013-05-04 02:25:00,
2013-05-03 22:30:00,49.6,48.7,30.06,SSW,213,1.0,5.0,97,0.00,,,0.28,0.0,meteohub,2013-05-04 02:30:00,
2013-05-03 22:35:00,49.6,48.7,30.06,SSW,202,1.0,5.0,97,0.01,,,0.29,0.0,meteohub,2013-05-04 02:35:00,
2013-05-03 22:40:00,49.5,48.6,30.06,SSW,192,2.0,5.0,97,0.01,,,0.29,0.0,meteohub,2013-05-04 02:40:00,
2013-05-03 22:45:00,49.5,48.6,30.06,SSW,193,1.0,5.0,97,0.01,,,0.29,0.0,meteohub,2013-05-04 02:45:00,
2013-05-03 22:50:00,49.5,48.6,30.05,WNW,282,0.0,5.0,97,0.01,,,0.29,0.0,meteohub,2013-05-04 02:50:00,
2013-05-03 22:55:00,49.5,48.6,30.05,SSE,155,3.0,4.0,97,0.01,,,0.29,0.0,meteohub,2013-05-04 02:55:00,
2013-05-03 23:00:00,49.5,48.6,30.05,South,171,1.0,4.0,97,0.01,,,0.29,0.0,meteohub,2013-05-04 03:00:00,
2013-05-03 23:05:00,49.5,48.6,30.05,WSW,244,1.0,4.0,97,0.01,,,0.29,0.0,meteohub,2013-05-04 03:05:00,
2013-05-03 23:10:00,49.5,48.6,30.05,SW,229,3.0,4.0,97,0.01,,,0.29,0.0,meteohub,2013-05-04 03:10:00,
2013-05-03 23:15:00,49.5,48.6,30.05,SSW,196,1.0,4.0,97,0.01,,,0.29,0.0,meteohub,2013-05-04 03:15:00,
2013-05-03 23:20:00,49.5,48.6,30.04,SSW,200,0.0,3.0,97,0.01,,,0.29,0.0,meteohub,2013-05-04 03:20:00,
2013-05-03 23:25:00,49.5,48.6,30.04,South,173,0.0,3.0,97,0.01,,,0.29,0.0,meteohub,2013-05-04 03:25:00,
2013-05-03 23:30:00,49.5,48.6,30.04,ESE,115,0.0,4.0,97,0.00,,,0.29,0.0,meteohub,2013-05-04 03:30:00,
2013-05-03 23:36:00,49.5,48.6,30.04,SW,229,0.0,10.0,97,0.00,,,0.29,0.0,meteohub,2013-05-04 03:36:00,
2013-05-03 23:41:00,49.5,48.6,30.04,SSW,203,1.0,10.0,97,0.00,,,0.29,0.0,meteohub,2013-05-04 03:41:00,
2013-05-03 23:46:00,49.5,48.6,30.04,SSE,153,3.0,4.0,97,0.00,,,0.29,0.0,meteohub,2013-05-04 03:46:00,
2013-05-03 23:51:00,49.5,48.6,30.04,SSW,192,0.0,4.0,97,0.00,,,0.29,0.0,meteohub,2013-05-04 03:51:00,
2013-05-03 23:56:00,49.5,48.6,30.04,SSW,201,1.0,4.0,97,0.00,,,0.29,0.0,meteohub,2013-05-04 03:56:00,